Flag for Germany Weather past 2 weeks in Neumarkt in der Oberpfalz, Bavaria, Germany

Now
41 °F

Drizzle. Fog.


Feels Like: 37 °F
Forecast: 39 / 49 °F
Wind: 6 mph from North

Location: Hohenfels

Current Time: Dec 18, 2014 at 12:09:46 AM

Latest Report: Dec 17, 2014 at 11:59 PM


Visibility: 6 mi

Pressure: 29.91 "Hg

Humidity: 100%

Dew point: 41 °F

Location of Neumarkt in der OberpfalzLocation

Historic Weather in Neumarkt in der Oberpfalz — Graph

°F

Neumarkt in der Oberpfalz temperature yesterday

Maximum temperature yesterday: 39 °F (at 2:02 PM)
Minimum temperature yesterday: 32 °F (at 8:58 AM)
Average temperature yesterday: 36 °F

Past Weeks' High & Low Weather Summary

 TemperatureHumidityPressure
High50 °F (Dec 13, 1:58 PM)100% (Dec 2, 10:58 PM)30.52 "Hg (Dec 2, 10:58 PM)
Low27 °F (Dec 8, 10:58 PM)54% (Dec 13, 1:58 PM)29.74 "Hg (Dec 12, 5:58 PM)
Average37 °F92%30.08 "Hg
* Reported Dec 2 10:58 PM — Dec 17 10:59 PM, Neumarkt in der Oberpfalz, Weather by CustomWeather, © 2014

Note: Actual official high and low records may vary slightly from our data, if they occured in-between our weather recording intervals... More about our weather records

Advertising

Neumarkt in der Oberpfalz weather history for previous 24 hours

 ConditionsComfort  
Time TempWeatherWind HumidityBarometerVisibility
10:59 PM
Dec 17
39 °FDrizzle. Fog.6 mph100%29.88 "Hg5 mi
9:58 PM39 °FDrizzle. Fog.8 mph100%29.90 "Hg4 mi
8:58 PM38 °FDrizzle. Fog.8 mph99%29.88 "Hg3 mi
7:58 PM38 °FFog.8 mph98%29.88 "Hg5 mi
5:58 PM37 °FLight rain. Mostly cloudy.5 mph93%29.85 "HgN/A
4:58 PM37 °FLight rain. Mostly cloudy.7 mph93%29.84 "HgN/A
3:58 PM38 °FRain. Fog.5 mph97%29.84 "Hg4 mi
2:58 PM37 °FRain. Fog.No wind93%29.85 "Hg4 mi
2:02 PM39 °FLight rain. Partly sunny.3 mph81%29.81 "HgN/A
1:58 PM38 °FLight rain. Scattered clouds.1 mph84%29.86 "HgN/A
12:58 PM37 °FPartly sunny.5 mph87%29.90 "HgN/A
11:58 AM37 °FScattered clouds.2 mph81%29.94 "HgN/A
10:58 AM36 °FOvercast.3 mph86%29.97 "HgN/A
9:58 AM34 °FOvercast.3 mph90%30.00 "HgN/A
8:58 AM32 °FIce fog.2 mph93%30.00 "Hg3 mi
7:58 AM33 °FPassing clouds.No wind99%30.00 "HgN/A
6:58 AM34 °FMostly cloudy.2 mph93%30.02 "HgN/A
5:58 AM34 °FPassing clouds.1 mph95%30.02 "HgN/A
4:58 AMN/AOvercast.No windN/A30.02 "HgN/A
3:58 AM33 °FClear.1 mphN/A30.02 "HgN/A
2:58 AM36 °FClear.2 mph87%30.01 "HgN/A
1:58 AM37 °FPartly cloudy.6 mph87%30.01 "HgN/A
12:58 AM37 °FMostly cloudy.2 mph93%29.98 "HgN/A
Weather by CustomWeather, © 2014

See weather overviewHow to use our weather pages